Wind_Speed
73 73 70 69 66 62 63 65 65 64 60 56 54 54 52 50 48 49 49 50 49 47 47 48 47 45 45 45 45 46 47 48 53 58 59 57 56 54 52 50 49 49 48 47 46 44 42 41 40 38 36 33 32 32 34 34 33 33 31 28 25 21 18 16 16 18 20 23 24 25 26 26 25 24 24 26 28 30 29 28 27 26 25 25 25
74 73 72 70 67 65 65 66 66 65 61 58 56 55 53 50 48 48 49 51 51 49 47 48 48 47 46 47 47 47 47 47 49 55 59 62 62 61 58 55 54 53 51 49 47 45 44 43 42 40 38 36 34 34 35 35 35 34 33 31 30 26 22 20 18 18 20 23 24 26 27 28 27 26 26 25 26 28 30 30 29 28 27 27 26
76 75 75 73 70 67 67 67 67 66 62 59 59 56 54 52 50 49 50 52 53 51 49 49 49 48 47 48 49 48 47 46 48 51 55 60 63 63 61 58 57 56 54 52 49 46 45 45 44 42 40 39 39 37 36 36 36 35 34 33 33 31 28 26 25 24 24 26 26 27 29 31 31 30 29 27 26 26 28 30 30 29 29 28 27
78 76 77 76 72 70 69 68 68 68 65 62 61 59 56 55 53 52 53 54 55 54 51 50 51 50 49 50 50 48 47 46 47 50 52 55 58 60 60 59 58 58 56 54 51 47 46 47 45 42 40 39 40 39 38 38 37 37 37 37 35 34 32 31 31 30 30 30 30 30 30 31 33 34 33 31 29 27 26 28 30 31 31 29 29
81 77 78 78 74 71 71 71 70 70 67 64 64 62 61 60 57 56 58 58 58 56 52 51 52 52 51 52 52 49 48 48 48 50 53 54 54 55 56 56 56 57 57 56 52 48 47 48 46 41 39 39 40 39 39 39 38 38 40 40 39 37 34 34 34 34 35 36 36 35 35 34 34 36 36 34 34 32 29 28 30 32 32 31 30
86 81 79 79 76 73 72 72 71 71 69 67 66 66 65 64 63 62 62 62 59 57 55 52 53 53 52 53 53 52 51 51 51 53 55 55 54 53 52 52 53 55 57 56 52 48 48 49 46 41 39 41 40 40 39 40 41 41 41 42 42 38 36 36 36 36 37 40 40 39 40 39 37 38 39 37 37 37 34 31 30 32 34 33 31
91 86 82 80 78 75 74 74 73 72 72 69 69 69 68 67 67 66 65 64 61 60 60 57 54 53 53 54 56 55 54 54 54 55 56 55 52 51 51 51 52 54 55 54 51 48 48 48 44 40 39 41 41 41 40 41 43 44 43 43 43 41 40 40 40 40 40 41 41 40 39 39 37 38 39 38 38 39 38 34 32 32 34 35 32
93 92 88 83 79 77 76 76 75 74 74 73 71 71 71 69 69 68 67 67 65 63 63 63 59 55 55 56 58 58 57 56 55 55 57 54 50 49 50 51 53 53 53 52 49 47 46 45 43 40 39 40 42 42 42 43 44 46 47 47 47 46 45 44 44 44 43 43 44 43 41 42 40 38 38 35 35 38 38 36 35 33 32 32 30
94 93 91 87 83 80 79 78 78 77 77 76 75 74 73 72 71 70 69 70 69 64 63 64 62 57 55 58 60 60 58 57 56 56 58 55 50 48 50 51 53 53 52 51 49 48 46 45 44 42 39 39 41 42 43 45 45 46 48 49 50 50 50 49 48 47 46 46 45 45 45 46 45 42 39 33 31 35 37 34 33 31 29 28 26
95 93 92 90 86 82 81 81 80 80 79 79 78 77 76 75 72 71 71 72 70 66 64 64 62 58 56 58 62 61 58 57 57 57 59 57 52 49 50 52 53 53 52 51 50 49 47 46 45 44 41 40 42 43 45 47 48 48 49 50 50 50 50 49 48 47 47 47 47 48 48 49 48 45 43 35 26 29 34 33 29 27 26 25 22
94 94 93 93 90 85 83 83 83 83 82 81 81 80 79 77 75 75 75 74 71 67 66 65 63 60 58 59 63 63 59 58 58 58 59 59 55 51 52 53 53 54 53 51 52 51 49 47 46 45 43 42 44 46 48 49 50 50 50 50 50 49 48 47 46 46 47 47 50 50 50 52 50 46 46 40 27 25 30 31 28 25 25 25 21
93 93 93 96 95 90 86 86 86 86 84 84 83 83 81 79 78 79 80 79 75 71 69 69 67 64 61 61 64 66 62 59 59 60 60 60 57 54 54 55 55 56 55 53 53 53 50 47 45 45 44 44 45 47 49 50 50 50 51 51 50 48 48 47 46 46 47 48 50 50 51 53 51 46 47 43 32 27 28 29 28 26 26 26 22
92 91 92 95 98 96 90 88 89 89 87 86 86 86 84 81 80 81 83 83 82 78 76 75 72 69 66 64 65 67 66 62 60 61 61 61 60 57 56 57 57 58 57 56 54 52 49 47 45 45 45 45 46 47 49 51 52 52 52 52 50 49 48 48 48 48 48 48 48 48 49 52 51 47 46 43 36 31 29 28 27 26 28 30 25
90 90 91 94 97 98 94 91 91 92 91 89 88 88 87 84 82 82 83 84 84 83 82 80 78 75 72 69 66 68 70 67 65 63 62 62 62 61 60 60 60 60 59 57 54 52 50 49 48 48 48 48 48 49 51 53 54 54 54 53 52 50 49 50 49 49 48 48 47 47 49 50 49 47 45 42 38 34 31 29 28 27 30 32 29
90 89 90 93 96 98 97 94 94 94 93 92 91 90 90 87 84 83 83 84 85 85 84 83 81 79 77 73 70 70 72 72 70 68 65 63 63 64 64 63 62 62 61 59 56 55 54 53 52 52 52 52 52 52 53 54 55 55 56 56 54 52 51 51 51 49 48 47 46 45 47 49 48 47 46 43 40 38 35 30 31 33 33 32 30
90 89 89 92 95 97 98 97 96 96 96 94 93 92 92 90 87 84 84 85 86 86 85 84 82 81 80 77 74 72 73 74 74 73 70 67 65 65 66 67 66 65 64 62 60 58 58 57 57 57 57 56 56 56 55 55 55 55 56 57 56 53 52 53 53 51 48 47 45 45 47 49 49 49 49 45 43 43 39 35 38 42 39 33 32
85 88 88 89 93 96 98 98 98 98 98 96 95 95 94 93 91 88 86 86 87 87 85 84 83 83 82 81 78 75 75 75 75 75 74 72 69 67 68 69 69 68 67 65 63 61 61 61 61 61 60 60 60 59 58 56 55 55 57 57 57 54 54 55 55 52 50 48 47 46 48 50 50 50 51 49 47 45 42 42 46 48 44 40 37
78 82 84 86 90 93 96 98 99 99 99 98 98 97 96 94 93 91 88 87 88 88 87 85 84 84 84 84 83 80 78 76 76 76 75 75 73 71 70 70 70 70 69 69 67 65 64 64 64 64 63 63 64 63 61 59 57 56 57 58 57 56 55 56 56 54 52 50 49 48 49 51 50 50 51 52 51 47 44 47 52 51 48 47 44
76 77 78 80 84 90 94 97 99 100 101 101 100 99 98 96 95 93 91 89 90 91 90 88 87 87 87 87 86 85 83 81 79 77 76 76 76 75 74 72 72 71 72 71 71 70 69 69 69 68 67 67 66 66 65 64 61 59 58 58 56 56 57 58 57 57 56 53 50 49 50 51 52 51 51 53 52 48 46 49 53 54 52 51 49
75 77 77 77 79 84 90 94 97 99 101 102 102 101 100 99 97 95 93 92 92 93 93 92 91 90 89 89 89 88 88 87 86 84 82 80 78 78 77 76 75 75 75 74 74 73 72 71 72 72 71 69 69 68 68 67 65 63 61 59 56 56 59 60 58 58 56 53 52 51 50 52 53 52 51 52 51 50 49 50 53 55 54 54 52
68 71 75 76 77 80 84 89 93 97 100 102 103 102 102 101 99 96 95 94 94 95 96 96 94 93 92 91 91 91 91 91 91 91 89 87 84 82 80 79 79 79 79 77 76 74 72 71 72 73 73 72 71 71 71 70 68 65 63 61 59 59 60 59 58 57 55 53 52 52 51 52 54 54 53 53 52 53 54 54 53 55 55 53 49
61 64 68 73 76 78 81 84 88 92 96 100 103 104 103 102 100 99 97 97 97 98 98 98 97 95 94 94 93 93 93 94 95 95 95 93 90 87 84 82 82 83 82 81 80 78 76 75 74 74 75 74 73 74 74 73 71 68 65 64 63 62 61 59 59 59 57 54 53 52 51 51 52 54 56 56 56 57 57 55 53 54 55 51 45
55 59 63 68 73 78 81 83 85 88 91 95 100 103 104 103 102 101 100 99 99 100 100 100 98 97 97 97 97 96 95 95 96 97 97 96 95 93 91 88 87 86 84 83 82 82 82 82 80 79 78 77 76 76 77 77 75 71 68 67 66 65 64 62 61 62 61 59 56 54 55 55 55 55 56 57 58 58 57 55 52 51 52 49 43
49 53 57 62 67 73 79 83 85 86 88 91 95 99 103 104 104 104 102 101 101 101 101 100 99 98 99 99 99 99 97 96 95 95 95 95 95 95 94 92 89 86 84 82 82 83 83 83 84 83 82 81 80 79 78 79 78 76 73 72 71 71 70 67 66 66 65 63 61 59 59 60 60 60 59 58 58 58 56 52 50 50 50 47 46
44 47 51 55 60 65 72 78 82 85 87 89 91 94 98 102 105 106 105 104 103 102 102 101 100 99 99 99 99 98 97 96 95 94 93 92 92 93 93 91 89 86 84 83 82 82 83 83 84 84 84 83 83 82 80 79 80 79 78 77 77 77 75 73 71 70 67 65 65 65 64 63 63 63 62 61 59 58 56 52 51 52 51 50 52
40 44 47 51 55 59 65 71 77 82 86 88 89 91 94 97 101 104 106 107 107 106 104 103 101 100 99 99 99 98 98 98 97 97 96 95 94 94 94 94 93 92 90 87 86 85 84 85 86 86 86 86 86 85 83 81 82 83 82 82 82 82 81 79 77 75 72 70 70 71 71 70 68 65 65 64 63 60 59 56 54 54 54 55 57
39 42 45 48 52 56 60 65 70 76 81 86 89 91 93 94 97 99 102 104 106 108 108 107 105 103 101 101 101 100 99 98 99 99 100 99 98 98 99 99 100 100 98 96 94 92 90 88 88 89 89 90 90 89 87 86 86 87 87 88 88 88 87 86 84 81 79 77 77 77 78 78 75 71 68 67 66 65 64 62 61 59 59 59 60
40 42 44 46 49 53 56 60 64 69 74 79 84 88 91 93 95 97 98 100 102 105 107 109 109 109 107 106 105 104 103 102 100 100 100 99 99 99 100 102 104 105 105 104 103 101 98 95 93 92 92 92 92 93 92 91 90 90 92 93 93 93 92 92 89 87 85 84 84 84 84 83 81 77 73 70 68 68 68 67 67 67 66 65 63
40 41 44 46 48 51 54 58 61 64 68 72 76 81 85 89 92 94 97 98 100 102 104 107 109 110 110 110 109 108 108 108 107 105 103 101 100 99 100 101 103 106 108 108 107 106 104 102 101 99 97 96 95 95 95 95 94 93 94 96 97 98 97 96 94 91 89 89 88 88 88 87 84 81 78 74 71 71 71 70 70 71 72 71 68
39 41 42 44 47 49 52 55 58 61 65 68 71 75 79 83 86 89 92 95 98 100 102 105 107 109 111 111 111 110 111 112 112 112 110 108 106 104 102 101 101 102 105 108 110 109 107 106 105 104 103 102 101 100 99 99 98 97 97 98 100 100 100 99 96 93 91 91 90 90 90 89 87 84 82 78 75 74 73 72 71 72 73 72 71
38 40 42 43 45 47 49 52 55 58 61 64 68 71 75 78 81 84 88 91 93 96 98 101 104 106 108 110 111 112 113 113 114 114 114 113 112 110 108 106 105 104 104 106 109 111 111 110 109 108 108 107 106 105 105 104 104 102 102 102 102 101 100 99 97 95 94 93 92 91 91 89 87 86 84 82 78 77 76 75 75 74 74 73 72
32 35 39 42 44 46 48 50 52 55 57 60 63 67 70 74 77 80 83 86 89 91 94 96 99 101 103 105 107 110 113 114 114 114 115 115 114 114 112 111 111 111 109 107 109 112 114 114 113 113 113 112 112 111 111 110 109 108 107 106 105 104 103 102 101 100 98 96 94 92 90 89 88 86 85 83 81 78 77 77 77 77 77 76 74
26 29 32 36 39 43 45 48 50 52 55 57 59 62 65 68 72 75 78 81 84 86 89 92 94 97 99 100 102 105 108 111 111 111 112 113 113 113 113 113 113 113 111 109 109 111 115 116 116 115 116 116 116 116 116 115 115 114 114 113 111 109 107 106 106 105 103 100 98 95 92 90 89 88 88 88 86 83 80 79 79 81 82 80 78
23 24 26 28 31 35 39 43 47 50 53 55 57 59 61 63 67 70 73 76 78 81 83 86 88 91 93 95 96 98 101 104 105 105 105 107 107 108 109 109 109 109 108 107 107 110 113 115 116 116 116 117 117 117 117 118 118 118 119 118 117 116 113 112 110 109 106 104 102 99 96 94 92 92 93 94 93 90 87 85 85 86 85 83 81
23 23 24 25 26 28 31 35 40 44 48 51 53 55 58 60 62 65 68 71 73 75 77 79 82 84 86 88 89 91 93 95 97 98 99 99 100 101 102 102 103 103 103 103 105 107 110 112 115 116 117 118 118 119 119 120 120 120 120 120 119 119 118 117 116 114 111 109 106 103 99 97 97 98 100 99 97 95 93 93 92 91 88 86 85
25 24 24 24 24 25 26 29 32 37 41 44 47 50 53 56 58 61 64 67 69 71 72 74 75 77 79 81 82 83 85 87 88 89 91 92 93 93 94 95 96 97 98 99 100 102 105 108 110 113 115 116 118 119 120 120 120 120 119 119 119 119 119 118 118 117 115 114 112 108 104 102 103 105 104 101 100 100 99 97 96 94 92 89 86
28 27 26 25 25 25 25 25 27 30 34 38 41 44 47 50 53 56 59 62 65 67 69 70 71 71 73 74 76 77 79 80 81 82 83 84 85 86 87 88 89 90 92 93 95 97 99 102 105 107 110 112 113 115 116 116 116 115 115 114 115 115 115 115 116 116 116 115 114 113 111 109 109 109 108 107 107 106 104 100 96 93 92 91 88
30 30 30 29 27 27 26 25 25 26 28 31 35 38 41 44 47 50 53 56 59 62 64 66 68 68 68 69 70 72 73 74 75 76 77 77 78 78 79 80 81 83 84 87 89 92 94 96 98 101 103 105 106 107 108 107 107 106 106 106 106 107 108 109 111 112 112 113 113 114 114 113 111 110 112 112 111 109 108 105 100 96 93 93 91
30 31 31 31 31 30 29 28 27 26 25 26 28 31 35 38 41 44 47 50 53 56 59 61 63 65 65 65 66 67 68 69 70 70 71 72 72 72 73 74 75 76 78 81 84 87 89 90 92 94 96 97 99 100 100 99 98 98 97 97 98 97 98 100 103 106 108 108 109 109 111 112 111 109 110 112 111 109 109 109 106 103 99 97 95
30 31 31 32 32 32 32 31 30 29 28 27 26 27 28 31 34 37 40 43 46 49 53 56 58 60 61 62 62 63 64 65 65 66 67 67 67 67 69 70 70 72 74 77 80 82 83 84 85 86 87 87 88 89 88 86 84 83 83 84 84 84 85 88 94 100 102 103 102 103 104 105 105 103 104 106 107 106 106 107 107 107 105 103 99
29 30 31 32 32 33 33 33 33 32 31 31 29 28 27 27 28 31 34 37 40 43 45 49 52 54 56 57 58 59 59 60 61 62 63 64 64 65 66 66 67 68 71 73 75 76 78 79 79 78 78 79 79 78 77 74 72 71 72 72 73 74 76 80 86 91 94 93 93 94 95 97 98 99 100 101 102 103 104 104 104 105 105 105 102
30 30 31 32 32 33 33 34 34 33 33 33 32 31 31 29 28 28 29 31 34 37 39 42 45 47 50 51 53 54 55 55 57 58 59 60 62 63 64 64 65 66 68 70 71 73 74 75 75 75 75 75 74 74 73 72 70 69 67 66 67 69 71 74 78 83 86 87 85 86 86 86 88 92 97 100 100 99 99 100 100 97 94 94 96
32 32 32 32 33 33 34 35 35 34 34 34 34 33 33 33 32 31 30 30 30 32 35 38 40 42 44 46 48 49 51 52 53 55 57 58 59 61 62 63 64 64 66 68 69 71 72 73 72 72 73 72 71 71 69 68 67 65 63 61 61 63 66 70 74 79 83 84 84 84 83 81 80 83 89 93 96 96 95 96 97 93 87 84 87
35 35 34 34 34 34 35 35 36 36 36 36 36 35 35 35 35 35 34 33 32 32 33 35 38 40 42 44 46 47 49 51 52 54 55 56 58 59 60 62 63 64 65 66 68 69 70 69 68 68 68 67 66 65 62 61 60 59 57 57 58 60 63 67 72 76 78 79 80 81 81 81 80 79 79 81 85 89 90 91 93 94 93 92 92
39 38 37 37 36 36 37 37 37 38 37 37 37 37 37 36 36 36 36 36 36 35 34 35 36 38 41 44 46 48 50 51 52 54 55 56 57 58 59 60 62 63 63 64 64 65 65 65 63 62 63 63 61 58 55 53 51 51 51 52 54 57 60 64 68 71 73 74 76 78 79 79 79 77 74 73 77 82 85 87 89 92 94 96 97
42 41 40 39 38 37 38 38 39 39 39 39 39 39 39 39 38 38 38 38 38 39 38 38 37 38 39 42 45 48 51 53 54 55 56 57 58 59 59 60 61 62 62 62 62 61 61 60 59 58 57 56 52 50 50 49 45 45 47 50 51 54 57 59 61 63 65 68 72 76 79 80 80 78 76 76 79 82 83 84 86 88 90 91 93
45 44 43 42 41 39 38 38 39 39 40 41 41 40 41 41 41 40 40 40 40 40 40 41 41 41 41 41 42 45 48 51 54 56 58 59 59 60 60 61 62 62 63 62 61 59 58 57 55 55 54 52 49 48 50 50 46 43 44 47 49 52 55 56 56 57 58 60 64 69 75 79 81 81 80 80 81 82 82 82 83 85 87 88 90
51 49 47 46 45 44 42 41 40 40 40 41 42 42 42 42 43 43 43 42 42 42 42 42 43 43 44 44 44 44 45 47 50 53 56 58 60 61 62 62 63 63 63 63 61 59 56 54 53 52 52 52 51 50 50 51 48 45 44 44 46 50 53 54 54 55 55 55 57 61 66 71 76 79 82 82 83 83 83 83 84 85 86 87 88
58 56 54 52 50 49 47 45 44 43 42 42 42 43 44 44 44 45 45 45 45 44 44 44 44 44 45 46 46 47 47 47 47 49 50 53 56 59 61 62 63 63 63 63 62 60 57 54 52 50 50 50 50 49 49 50 50 48 45 43 43 44 46 49 51 52 52 53 54 56 59 62 66 71 77 81 83 84 83 81 80 80 80 80 81
62 62 61 60 58 55 53 51 49 47 46 46 45 45 45 45 46 46 46 47 47 47 47 47 46 46 46 47 47 48 49 49 50 50 50 50 51 53 56 58 61 62 63 63 62 61 59 56 53 51 49 49 48 48 47 49 50 50 48 46 43 41 40 40 42 44 46 47 49 51 54 57 60 63 67 72 76 78 79 78 77 76 76 76 77
65 65 66 65 64 63 61 58 55 53 51 50 49 49 48 47 47 47 47 48 48 49 49 50 49 49 49 49 49 49 50 50 51 51 52 52 52 51 52 53 55 57 60 61 62 61 60 58 56 53 51 49 48 47 46 46 47 50 50 49 46 42 39 38 40 41 42 43 45 47 49 52 54 57 60 63 66 69 71 73 75 76 78 79 79
Wind_Direction
219 216 214 214 215 214 213 212 212 214 215 216 217 220 224 226 228 232 236 238 241 242 241 241 243 243 247 250 248 243 239 234 233 234 235 236 238 240 241 241 243 244 246 247 251 255 260 264 266 266 264 264 270 274 273 269 267 267 269 271 273 275 279 287 299 309 315 320 323 324 325 326 328 334 344 350 351 349 347 344 342 339 337 338 339
218 215 214 215 215 213 212 212 210 212 214 214 216 219 221 223 226 231 237 240 241 241 240 239 240 241 244 247 245 243 240 236 234 233 234 235 238 241 242 241 241 244 247 248 250 254 257 261 263 263 261 259 263 272 275 275 273 271 271 272 273 275 278 283 291 299 308 317 323 327 329 329 330 332 338 346 350 349 347 345 342 338 335 336 338
216 215 214 215 214 212 211 211 210 211 213 214 216 218 219 222 225 229 235 240 243 244 241 239 239 240 243 245 244 241 239 237 234 234 234 235 237 239 240 239 239 242 245 248 250 252 255 259 261 261 261 259 260 265 270 273 275 275 273 273 273 275 278 283 287 292 298 304 312 320 325 328 331 332 334 339 344 347 346 344 342 338 334 334 336
216 215 215 216 215 212 211 210 210 211 213 214 215 217 220 223 226 227 231 237 242 244 244 241 238 239 242 244 243 241 238 236 234 233 235 236 237 238 238 238 238 240 243 247 249 251 253 256 259 259 259 258 259 263 266 267 271 274 273 273 273 275 279 285 289 291 293 295 301 309 316 323 328 330 332 335 336 339 341 342 341 338 335 335 336
217 216 216 217 216 213 211 211 210 211 212 213 214 217 220 223 224 226 228 232 236 239 242 241 238 239 242 243 243 243 239 236 235 234 235 236 237 237 237 238 238 239 242 245 247 249 250 254 257 257 257 258 259 263 267 267 268 271 273 274 275 277 282 286 287 288 291 293 297 302 307 313 319 321 324 329 332 333 335 336 338 338 336 336 336
218 218 218 218 216 214 213 211 211 211 212 213 214 216 219 222 223 224 226 229 232 235 237 237 237 238 241 242 244 245 242 238 236 235 236 236 237 238 238 238 238 239 241 244 245 246 247 252 254 254 256 258 259 261 266 269 268 268 271 274 276 280 283 285 286 287 290 294 298 302 305 308 312 314 316 319 324 327 331 334 336 337 338 338 336
220 219 220 219 217 215 214 212 211 212 212 213 215 217 219 222 223 224 225 227 230 233 235 235 237 239 239 241 243 244 243 240 236 236 236 236 236 238 238 238 238 238 239 241 242 243 245 249 251 252 255 259 260 261 265 269 269 267 267 271 274 277 279 281 284 287 290 294 298 303 307 309 311 312 313 314 317 320 324 332 337 335 336 338 337
220 220 222 222 218 215 214 213 212 213 213 213 215 217 219 222 223 224 226 227 229 233 235 236 239 240 239 240 242 243 244 240 235 234 235 235 236 237 237 237 236 236 237 238 240 241 244 247 249 252 255 258 260 261 263 268 269 267 267 269 272 275 277 279 283 287 291 295 299 302 306 308 309 309 309 311 315 315 316 325 336 335 333 337 339
221 220 221 223 221 216 214 213 213 213 214 214 215 217 220 222 223 223 225 227 230 233 235 236 238 239 240 241 242 244 245 242 235 233 234 235 236 237 236 235 235 234 235 237 240 242 243 246 249 253 255 256 258 260 262 266 267 264 263 266 271 274 276 279 283 287 291 294 296 299 301 302 304 306 304 305 313 314 310 317 333 336 330 334 340
222 222 221 221 221 218 214 213 214 214 214 215 216 218 220 222 222 223 225 227 230 232 234 234 236 238 240 241 242 244 246 243 237 234 235 237 237 238 237 236 235 235 234 236 239 242 243 245 249 252 254 255 258 259 261 264 264 261 260 262 267 270 273 277 280 283 286 289 290 293 295 295 299 303 301 299 308 313 309 313 326 333 330 332 338
223 223 222 220 221 220 216 214 214 214 214 215 217 218 220 222 223 224 225 227 229 232 233 234 235 238 241 242 242 243 245 244 239 237 237 238 239 239 239 237 236 235 235 236 238 240 242 244 248 251 253 254 256 257 259 262 261 260 259 261 264 267 270 273 275 277 279 281 283 286 289 291 294 299 299 295 298 308 309 308 313 321 328 334 339
224 223 223 221 221 221 219 216 215 215 215 216 217 219 221 223 224 225 226 227 229 232 234 234 236 239 241 243 242 242 243 244 241 240 240 241 241 241 240 239 237 235 235 236 238 239 240 242 246 250 252 252 253 254 256 258 259 259 261 262 265 267 269 271 272 273 274 276 278 282 285 287 289 294 296 293 292 299 305 306 307 309 314 324 335
226 224 223 223 222 222 222 218 215 215 216 216 218 220 222 223 224 225 226 228 230 232 234 235 237 239 241 243 243 241 242 243 243 242 242 243 244 243 241 240 239 238 237 238 239 240 241 242 245 248 252 254 254 255 255 256 258 260 261 263 265 266 268 269 270 272 273 274 277 279 282 283 285 290 292 291 290 294 300 303 304 304 304 309 321
227 225 224 223 223 223 223 220 216 215 217 218 219 221 222 223 224 226 227 229 231 233 235 236 237 239 239 242 243 242 241 242 243 243 243 244 245 244 241 240 240 241 240 240 241 242 243 244 246 248 253 256 258 260 260 258 258 260 262 263 265 266 267 268 269 270 271 273 275 277 279 280 282 286 289 288 287 291 297 299 298 300 302 302 307
229 227 224 223 223 223 223 222 219 217 217 219 220 222 223 223 224 226 228 229 231 233 235 237 238 238 239 240 243 243 242 242 242 243 243 244 245 244 242 240 240 241 241 240 241 244 247 248 249 250 254 257 259 262 263 261 259 259 262 263 264 265 267 268 269 270 270 272 273 275 276 277 279 283 286 286 283 286 294 300 299 299 301 301 299
231 229 227 224 223 223 223 223 221 219 219 220 222 223 224 225 225 225 227 230 231 233 235 237 238 238 239 240 242 244 243 243 243 244 244 245 246 245 243 241 241 241 241 241 242 245 249 251 252 254 256 259 260 261 261 261 260 259 261 263 264 266 268 269 270 270 271 272 272 272 272 273 276 279 283 284 280 281 290 299 301 301 301 301 296
234 233 231 228 224 223 223 224 224 222 221 222 223 224 225 226 227 227 227 229 231 233 234 236 238 239 239 240 241 243 244 244 244 245 246 247 247 246 244 242 241 242 242 243 244 245 248 251 254 255 258 260 261 260 259 260 260 260 261 262 263 265 267 268 269 270 272 273 272 272 271 271 273 277 281 282 279 278 286 295 297 298 300 301 295
238 237 236 233 229 226 224 225 225 225 224 224 224 225 226 227 228 229 229 230 231 233 235 236 238 239 240 240 241 242 244 245 245 246 247 247 248 247 245 243 242 242 243 244 245 247 248 251 252 255 258 260 261 260 258 259 260 261 261 262 263 265 266 266 268 270 271 272 272 273 272 271 272 275 279 281 280 280 285 290 292 295 298 299 295
241 240 239 238 234 230 227 226 226 226 226 226 227 227 228 228 229 230 231 231 232 233 235 237 239 239 240 241 242 242 244 245 247 247 247 248 248 248 248 246 244 244 244 245 247 249 251 252 253 254 257 259 260 259 258 259 260 260 261 262 264 266 266 266 268 270 272 272 273 273 271 270 271 273 277 280 280 280 283 287 290 292 294 296 294
243 243 242 241 238 234 230 228 227 227 227 227 228 229 230 230 231 232 232 233 233 234 235 237 239 240 241 241 242 243 244 245 247 249 250 250 250 250 250 249 248 247 247 248 250 252 253 254 254 255 256 258 259 259 258 258 259 259 260 261 262 263 264 266 269 271 272 274 275 275 274 272 271 272 275 278 278 278 278 282 286 289 290 291 291
244 244 243 242 240 236 233 230 229 229 228 228 229 230 231 232 233 233 234 234 234 234 234 236 238 240 241 242 243 244 245 246 248 250 251 252 253 253 251 251 250 250 250 251 252 253 254 255 255 256 256 257 258 259 259 259 258 258 259 259 259 259 261 264 267 270 272 274 275 277 278 277 275 274 274 275 275 274 275 278 282 283 285 286 286
243 244 243 242 240 237 235 233 231 231 230 230 230 231 232 233 234 235 235 236 235 235 235 236 237 240 242 243 244 245 246 247 248 250 251 252 254 254 254 254 253 252 252 252 253 253 254 255 256 257 257 257 258 258 258 258 257 257 257 257 256 257 259 262 265 268 271 273 274 276 278 279 279 278 275 273 273 272 273 275 276 278 281 284 285
241 241 242 241 240 239 238 236 234 233 233 232 232 232 233 234 235 236 236 237 237 237 237 238 239 240 242 244 246 247 249 250 250 251 252 253 254 255 255 256 257 256 254 254 254 253 253 254 256 257 258 258 259 259 258 257 257 256 256 255 254 256 259 261 264 267 268 269 271 273 274 276 278 279 277 274 272 271 272 272 273 278 281 281 282
240 240 241 241 240 240 239 239 238 237 236 235 235 234 235 235 236 236 237 237 238 238 239 240 241 241 243 245 246 248 249 251 252 253 253 254 255 255 255 256 257 257 256 255 255 255 255 255 255 257 258 259 260 260 259 257 256 256 256 255 254 255 258 262 265 266 267 268 269 270 270 272 274 276 276 275 272 271 271 271 274 279 280 278 279
240 240 241 241 241 241 240 240 240 239 239 238 238 237 237 237 237 237 238 238 238 239 240 241 242 242 243 244 246 248 249 250 251 252 253 254 254 255 255 255 256 256 257 257 257 257 257 257 257 258 259 259 260 260 260 259 257 256 256 255 254 256 259 262 265 266 267 268 269 269 269 269 271 272 273 275 274 272 271 270 273 277 277 275 278
244 242 241 241 242 242 241 241 241 240 241 240 240 240 239 239 239 239 239 239 240 240 240 241 242 242 243 244 245 247 249 250 251 252 253 254 255 256 257 257 257 257 258 258 258 258 258 258 259 259 260 260 260 260 260 259 258 257 257 256 256 257 260 262 264 266 266 266 267 268 270 270 271 272 272 273 274 272 271 270 271 275 276 275 277
251 248 244 243 242 242 242 241 241 241 242 242 242 242 241 241 241 240 240 241 241 242 242 242 243 243 244 244 245 246 249 250 251 252 253 253 254 256 258 259 260 260 260 259 259 258 258 258 258 258 259 260 261 261 261 260 260 260 259 259 258 259 261 263 264 265 266 266 267 268 270 270 271 272 272 272 272 272 271 270 271 274 276 275 275
257 254 251 247 245 244 243 242 242 242 242 243 243 243 243 243 242 242 242 242 242 243 243 244 244 244 245 245 246 246 247 249 250 251 252 253 253 254 255 257 258 260 260 261 260 260 259 259 258 258 258 259 260 261 261 261 260 260 260 260 260 261 262 263 264 265 266 268 268 268 269 270 270 271 271 271 271 271 270 270 271 272 274 274 275
261 258 256 253 250 248 246 245 244 244 244 244 244 244 244 244 244 244 243 243 243 244 244 245 245 245 246 247 247 247 248 249 250 251 252 252 253 254 255 256 257 258 259 260 261 261 261 260 259 259 258 259 259 259 260 260 260 260 260 260 261 262 263 264 265 266 267 267 268 268 269 269 270 271 271 270 271 271 271 270 270 271 271 273 274
263 261 259 258 255 253 251 249 247 246 245 245 246 246 246 246 245 245 245 245 245 245 245 246 246 246 247 247 248 249 249 250 251 252 252 253 254 255 256 257 258 258 259 259 259 260 261 261 260 260 259 259 259 259 259 260 260 260 260 260 261 261 262 263 264 265 266 267 267 268 268 269 270 270 271 270 270 270 271 271 271 271 271 272 273
268 265 262 260 259 257 255 254 252 250 249 248 247 247 248 248 248 248 247 247 247 246 247 247 247 247 248 248 249 249 250 251 253 253 254 254 255 256 257 258 258 260 262 261 259 258 258 259 260 260 260 260 259 259 259 259 259 260 261 261 262 262 263 263 264 264 264 265 266 267 267 268 269 269 270 270 270 270 270 271 271 272 272 272 272
277 272 268 265 262 260 258 257 256 254 253 251 250 249 249 249 249 249 250 250 249 249 249 249 249 249 249 249 250 250 251 252 253 255 255 256 256 257 258 259 259 261 263 262 259 257 256 257 258 259 260 261 261 261 261 261 261 261 261 262 262 262 263 263 264 264 264 264 265 266 267 268 268 269 269 270 269 268 269 270 271 271 270 270 271
290 284 278 272 268 265 263 261 259 258 256 255 254 253 252 251 251 250 250 250 251 251 251 251 251 251 252 251 251 252 253 254 254 255 256 257 258 258 258 259 260 262 262 261 258 256 256 256 257 258 259 261 262 263 263 264 264 265 265 265 264 264 263 263 263 263 263 264 265 265 266 267 267 267 268 269 268 267 268 269 269 269 269 269 269
298 295 290 285 278 272 268 265 263 261 260 258 257 255 254 254 254 253 252 251 250 251 251 252 252 253 253 253 253 253 254 255 256 256 256 257 258 259 259 259 260 260 260 259 257 256 256 256 257 258 259 260 261 262 262 263 264 265 266 267 267 267 267 266 265 264 264 263 263 263 264 265 265 265 266 267 268 268 268 269 269 269 268 267 266
298 298 297 296 292 286 279 273 268 265 263 262 261 259 258 256 256 255 255 254 253 251 251 251 252 252 253 253 253 253 254 255 256 257 257 257 257 258 258 259 259 259 259 258 257 257 256 257 257 258 259 260 261 261 262 263 264 265 265 266 267 268 269 269 268 268 267 266 265 264 263 263 264 264 264 264 266 267 268 268 268 269 268 267 265
299 298 298 298 297 295 291 285 279 273 269 265 263 262 261 260 258 257 257 257 256 255 253 252 251 251 252 253 253 253 253 254 255 255 256 257 258 258 258 258 258 259 259 259 259 259 258 258 259 259 259 260 261 262 262 263 263 264 265 266 266 267 267 268 268 268 269 268 267 266 264 263 262 262 263 263 264 265 265 265 266 267 267 266 264
301 300 298 297 295 294 292 290 287 283 278 273 269 266 264 262 261 260 259 258 258 258 257 255 254 252 251 252 253 253 253 253 254 254 254 255 256 257 258 258 258 259 259 260 260 260 260 260 260 260 261 261 262 263 263 264 265 265 265 265 265 266 266 266 266 266 266 266 266 265 264 262 261 261 262 261 261 261 261 262 263 263 264 263 263
303 301 299 298 296 293 291 289 288 286 284 281 276 272 268 266 264 262 261 260 259 259 259 259 258 256 254 252 252 253 254 255 255 255 256 256 256 256 257 258 258 259 259 260 260 260 260 260 261 262 262 263 264 265 266 266 267 267 267 267 266 265 264 264 264 264 263 263 263 263 262 261 261 260 260 260 260 260 260 260 260 260 260 261 263
307 305 303 301 298 296 294 292 290 288 287 284 282 278 274 271 268 266 264 262 261 260 260 259 259 259 258 255 253 253 253 254 256 257 257 258 258 259 259 259 260 261 261 262 262 262 262 262 263 264 265 265 266 267 268 268 268 268 267 266 265 264 262 261 261 260 260 259 259 259 259 259 259 258 258 259 259 258 258 258 259 258 258 259 261
313 311 309 307 304 301 299 296 295 293 291 288 285 282 278 274 272 269 268 266 264 262 261 261 260 260 260 259 257 255 253 253 254 255 257 258 259 260 260 261 262 263 264 264 265 266 266 267 267 268 269 270 270 270 269 269 267 266 264 263 261 260 258 256 255 255 255 256 256 255 255 256 256 256 256 256 257 256 256 256 257 257 258 259 260
319 316 313 312 310 307 305 302 299 297 294 292 290 287 284 280 276 272 270 269 267 265 263 262 261 261 260 260 259 257 256 254 253 254 255 256 257 259 260 261 263 264 265 266 267 269 270 271 272 273 274 275 275 275 274 272 270 268 266 263 260 257 253 252 252 253 254 254 254 254 254 254 254 253 253 253 254 254 254 254 255 256 257 258 259
329 324 319 315 312 309 307 306 303 301 298 296 293 291 289 287 284 279 275 271 269 268 266 264 262 261 260 260 259 258 257 256 255 255 255 255 257 258 260 261 262 263 265 267 269 270 272 274 275 276 277 277 277 277 277 276 274 272 268 263 259 254 250 248 248 249 250 250 250 250 250 250 249 249 249 249 250 252 252 252 252 252 254 255 254
337 332 328 322 317 312 309 306 305 304 302 300 297 295 292 290 289 286 283 278 273 269 267 265 263 262 260 259 258 257 257 256 256 256 256 257 257 258 259 260 261 262 263 265 268 270 272 273 275 276 277 277 277 277 276 274 272 269 265 260 255 251 247 245 243 244 245 245 244 244 243 243 243 244 246 247 248 249 251 251 251 250 249 249 250
340 338 334 330 325 319 314 309 306 304 303 302 300 298 296 293 290 288 286 283 279 274 269 266 263 262 260 258 256 255 255 255 255 255 255 256 256 257 258 259 260 261 262 264 266 269 271 273 274 276 276 277 277 277 276 273 270 266 262 257 252 247 243 242 242 243 243 243 242 241 240 239 239 241 244 246 248 249 249 250 251 249 248 247 248
342 340 337 334 331 327 322 316 311 307 303 300 299 298 297 295 293 291 288 286 283 280 276 270 266 262 260 259 257 256 255 254 254 253 253 254 254 255 256 257 258 260 262 264 266 269 271 273 275 276 277 278 278 278 276 273 270 266 262 259 254 250 245 242 242 244 244 243 241 241 240 240 241 241 242 244 247 248 248 248 248 249 248 248 248
344 342 339 337 334 330 326 322 317 312 307 303 298 296 294 293 292 291 289 287 285 283 280 276 272 267 263 260 259 258 257 256 255 254 254 253 253 253 254 255 256 259 261 264 267 269 272 274 276 276 277 278 278 276 274 272 270 266 263 261 259 257 254 249 246 245 245 244 243 242 241 241 242 242 242 243 246 247 247 247 248 249 250 250 250
344 343 341 338 336 333 329 326 321 316 312 307 302 298 294 291 290 289 288 287 285 284 282 280 277 274 270 266 262 260 259 258 258 257 256 255 254 254 254 254 256 258 260 262 265 268 271 274 275 276 276 275 273 271 271 272 269 265 261 259 257 258 259 258 256 253 250 247 246 245 243 242 242 241 241 242 244 246 247 247 248 249 250 250 251
343 342 341 339 337 334 332 329 325 321 316 312 307 302 298 294 290 288 286 284 283 282 281 280 279 277 275 272 269 265 263 261 260 259 259 258 257 256 256 255 256 257 259 260 262 264 267 270 273 274 275 274 273 271 271 271 270 266 263 260 256 255 256 257 258 258 256 253 250 248 246 244 243 241 241 241 243 245 246 247 248 249 250 251 252
341 340 340 339 337 335 333 330 328 325 321 317 312 307 302 298 294 290 287 284 282 280 279 278 278 277 276 275 273 271 268 266 263 262 261 260 259 259 258 257 256 257 257 259 260 261 262 265 268 270 271 272 273 272 272 272 271 269 267 263 260 258 257 255 254 255 255 255 252 250 248 246 244 243 242 242 242 243 245 246 248 250 251 252 253
339 338 338 337 336 335 333 331 329 326 324 321 317 312 307 302 297 293 289 286 283 281 279 277 276 275 275 274 274 273 271 270 268 266 264 262 261 261 260 260 259 257 257 257 258 259 260 261 262 264 266 268 269 269 270 270 271 271 270 267 263 259 258 258 257 255 254 254 253 251 250 248 246 245 243 243 243 244 245 245 247 248 250 252 254
337 336 336 335 335 334 333 331 329 327 325 323 320 317 312 307 301 296 292 288 285 282 280 278 276 274 273 272 272 272 271 271 270 269 267 266 264 263 262 261 261 260 258 257 256 257 257 258 259 260 262 264 264 264 264 265 266 268 269 269 266 262 258 259 262 261 258 255 253 251 250 249 248 247 245 244 244 245 245 245 246 247 249 252 253
Height
10616 10621 10626 10632 10638 10644 10649 10654 10659 10664 10668 10672 10676 10679 10682 10686 10690 10692 10695 10698 10701 10704 10707 10710 10712 10714 10716 10718 10719 10720 10722 10724 10727 10731 10735 10737 10739 10741 10743 10745 10746 10746 10748 10751 10753 10754 10755 10755 10756 10757 10760 10763 10764 10764 10765 10765 10765 10764 10764 10764 10763 10763 10763 10762 10763 10763 10763 10763 10763 10763 10762 10761 10760 10759 10758 10757 10755 10753 10751 10749 10747 10744 10742 10740 10738
10612 10616 10621 10626 10632 10638 10643 10649 10654 10659 10662 10666 10670 10674 10678 10681 10685 10688 10691 10693 10696 10700 10703 10705 10708 10710 10711 10712 10714 10715 10717 10719 10722 10725 10728 10730 10733 10735 10737 10739 10741 10741 10743 10746 10748 10750 10751 10751 10751 10752 10755 10758 10759 10760 10761 10761 10762 10762 10761 10761 10761 10761 10761 10761 10760 10760 10761 10761 10761 10761 10761 10760 10759 10758 10757 10756 10755 10753 10751 10749 10747 10744 10742 10739 10737
10607 10612 10616 10621 10626 10633 10638 10644 10649 10653 10657 10661 10664 10669 10673 10676 10680 10684 10686 10687 10690 10694 10697 10700 10703 10705 10706 10707 10708 10710 10712 10714 10716 10719 10722 10724 10726 10728 10730 10733 10735 10737 10739 10741 10743 10745 10746 10746 10746 10747 10749 10752 10754 10755 10757 10757 10758 10758 10757 10757 10757 10757 10758 10758 10758 10758 10758 10758 10758 10758 10758 10758 10758 10757 10756 10755 10753 10752 10751 10749 10747 10744 10741 10739 10737
10602 10607 10612 10616 10622 10628 10633 10639 10644 10647 10651 10655 10659 10663 10667 10671 10675 10679 10681 10683 10685 10688 10692 10696 10699 10701 10701 10701 10703 10705 10707 10709 10711 10714 10716 10718 10720 10722 10725 10727 10730 10732 10734 10736 10738 10741 10742 10742 10742 10742 10744 10747 10748 10750 10752 10753 10753 10753 10753 10752 10752 10752 10753 10754 10755 10755 10755 10755 10756 10756 10756 10756 10756 10755 10755 10754 10752 10751 10750 10748 10746 10744 10741 10739 10737
10597 10602 10608 10613 10618 10624 10629 10634 10639 10643 10646 10650 10654 10658 10662 10665 10669 10672 10675 10678 10680 10683 10687 10690 10693 10696 10696 10697 10698 10701 10702 10704 10706 10709 10711 10714 10716 10718 10720 10722 10725 10727 10729 10731 10733 10735 10737 10737 10737 10738 10740 10742 10744 10745 10747 10748 10750 10750 10749 10748 10748 10748 10748 10749 10750 10750 10751 10750 10751 10753 10754 10754 10754 10753 10752 10752 10750 10749 10748 10747 10745 10744 10741 10739 10737
10592 10597 10602 10609 10614 10619 10625 10630 10634 10638 10642 10645 10649 10653 10656 10659 10662 10665 10668 10671 10674 10677 10680 10684 10687 10690 10691 10693 10694 10696 10697 10699 10701 10703 10706 10708 10711 10713 10715 10717 10720 10722 10724 10726 10727 10729 10731 10731 10732 10734 10736 10737 10738 10740 10741 10743 10745 10746 10747 10745 10744 10744 10744 10744 10744 10745 10747 10746 10747 10748 10749 10750 10750 10749 10749 10749 10748 10747 10747 10745 10743 10742 10741 10739 10737
10586 10592 10597 10603 10609 10614 10620 10625 10629 10633 10637 10640 10643 10647 10650 10654 10657 10660 10663 10665 10668 10670 10674 10678 10681 10684 10686 10687 10689 10690 10692 10694 10696 10698 10700 10703 10705 10707 10709 10712 10714 10716 10718 10720 10722 10724 10725 10726 10727 10729 10731 10732 10733 10735 10736 10738 10740 10742 10742 10741 10740 10740 10741 10740 10740 10742 10743 10743 10743 10745 10745 10746 10746 10745 10744 10745 10745 10744 10744 10744 10742 10741 10739 10738 10736
10579 10586 10591 10598 10604 10609 10614 10619 10623 10627 10630 10634 10637 10641 10645 10648 10651 10654 10657 10660 10662 10665 10669 10672 10676 10679 10680 10681 10683 10684 10686 10688 10691 10693 10695 10697 10699 10701 10703 10705 10708 10710 10712 10714 10716 10718 10720 10721 10722 10724 10726 10727 10728 10730 10732 10733 10735 10736 10737 10737 10736 10736 10737 10737 10738 10739 10740 10741 10740 10741 10742 10742 10743 10742 10741 10740 10741 10741 10741 10741 10741 10739 10738 10736 10734
10573 10579 10586 10592 10599 10603 10608 10612 10617 10620 10624 10628 10631 10634 10638 10641 10645 10648 10651 10654 10656 10659 10663 10667 10670 10673 10675 10676 10677 10679 10681 10683 10686 10688 10690 10692 10694 10695 10697 10700 10702 10704 10706 10708 10711 10713 10715 10717 10718 10718 10720 10721 10723 10725 10727 10728 10730 10731 10732 10732 10732 10732 10733 10733 10735 10735 10736 10737 10737 10736 10737 10738 10738 10739 10738 10736 10737 10737 10737 10738 10739 10738 10736 10734 10732
10567 10573 10580 10586 10592 10597 10602 10606 10610 10614 10618 10621 10624 10628 10631 10634 10638 10641 10645 10648 10650 10653 10657 10661 10665 10667 10669 10671 10672 10674 10676 10678 10681 10683 10685 10686 10689 10690 10692 10695 10697 10699 10701 10703 10705 10707 10709 10711 10712 10713 10714 10716 10718 10719 10721 10722 10724 10725 10726 10727 10728 10728 10729 10730 10731 10732 10732 10733 10732 10732 10733 10733 10733 10734 10733 10733 10733 10733 10733 10734 10735 10735 10734 10731 10730
10561 10567 10573 10579 10584 10590 10595 10599 10604 10607 10611 10614 10618 10621 10624 10627 10631 10634 10638 10642 10645 10648 10651 10655 10659 10661 10664 10666 10667 10669 10670 10672 10675 10677 10679 10681 10684 10686 10688 10689 10692 10694 10696 10698 10699 10701 10703 10705 10706 10707 10709 10710 10712 10713 10715 10716 10718 10719 10720 10721 10723 10723 10724 10726 10727 10727 10728 10728 10728 10728 10728 10728 10728 10729 10729 10728 10730 10730 10729 10730 10731 10731 10731 10729 10727
10555 10561 10567 10572 10578 10583 10588 10592 10596 10600 10604 10607 10611 10614 10618 10621 10624 10628 10631 10635 10638 10642 10645 10649 10652 10654 10657 10659 10661 10663 10664 10666 10669 10671 10673 10676 10678 10681 10683 10684 10686 10689 10691 10693 10694 10695 10697 10699 10701 10702 10703 10705 10706 10707 10709 10710 10711 10713 10713 10715 10717 10718 10719 10720 10721 10721 10722 10723 10723 10723 10723 10722 10723 10724 10724 10724 10725 10725 10725 10725 10725 10726 10727 10726 10725
10548 10554 10560 10566 10571 10576 10581 10586 10589 10592 10596 10600 10604 10607 10611 10614 10617 10621 10624 10628 10632 10635 10638 10641 10644 10647 10650 10652 10654 10657 10658 10660 10662 10664 10667 10669 10672 10676 10677 10679 10681 10684 10686 10688 10688 10690 10691 10693 10695 10697 10698 10699 10700 10701 10703 10704 10705 10707 10708 10710 10712 10713 10713 10714 10715 10715 10716 10717 10718 10718 10717 10716 10717 10719 10719 10720 10721 10721 10720 10720 10720 10721 10722 10722 10722
10541 10547 10553 10559 10564 10569 10575 10579 10581 10585 10588 10592 10596 10600 10603 10607 10610 10614 10618 10621 10625 10628 10630 10634 10637 10640 10642 10645 10647 10650 10651 10653 10654 10657 10660 10662 10665 10669 10672 10674 10676 10678 10680 10682 10683 10684 10686 10687 10689 10691 10692 10693 10694 10696 10697 10699 10700 10701 10703 10705 10706 10707 10708 10708 10708 10709 10710 10712 10712 10712 10711 10710 10711 10713 10714 10715 10717 10716 10716 10715 10715 10715 10716 10716 10717
10534 10540 10546 10551 10556 10561 10567 10571 10575 10578 10581 10585 10589 10592 10596 10600 10603 10607 10611 10614 10617 10621 10623 10626 10629 10632 10635 10638 10641 10643 10644 10645 10647 10649 10652 10655 10658 10662 10666 10668 10670 10672 10674 10676 10677 10678 10679 10681 10683 10685 10686 10687 10688 10690 10692 10693 10695 10696 10698 10699 10701 10702 10703 10702 10701 10702 10703 10705 10707 10707 10705 10703 10705 10707 10709 10711 10712 10711 10711 10711 10710 10710 10710 10711 10712
10528 10533 10538 10544 10549 10554 10559 10564 10568 10572 10575 10579 10582 10585 10589 10593 10596 10600 10604 10607 10610 10613 10616 10619 10622 10625 10628 10631 10634 10636 10636 10638 10640 10643 10645 10648 10651 10655 10659 10662 10664 10667 10668 10669 10671 10673 10673 10675 10677 10678 10680 10681 10681 10683 10685 10687 10689 10691 10692 10693 10695 10697 10697 10695 10693 10695 10697 10698 10700 10701 10700 10697 10698 10701 10703 10705 10706 10705 10705 10706 10705 10704 10705 10706 10706
10521 10526 10532 10538 10543 10548 10552 10557 10562 10566 10569 10572 10575 10578 10582 10585 10589 10592 10597 10600 10603 10606 10609 10612 10615 10617 10620 10623 10626 10629 10630 10631 10633 10636 10638 10641 10644 10648 10652 10655 10658 10661 10662 10663 10665 10667 10668 10669 10670 10671 10673 10674 10674 10676 10678 10680 10683 10685 10686 10687 10689 10691 10691 10688 10686 10688 10690 10691 10693 10696 10695 10692 10692 10695 10697 10699 10699 10699 10700 10700 10699 10699 10700 10700 10699
10516 10520 10525 10531 10536 10542 10546 10550 10555 10559 10563 10566 10569 10572 10575 10578 10581 10585 10590 10593 10596 10598 10602 10604 10607 10610 10613 10616 10619 10622 10624 10624 10626 10629 10630 10633 10636 10640 10644 10648 10652 10655 10656 10657 10659 10660 10661 10662 10663 10665 10667 10666 10666 10668 10670 10673 10676 10678 10679 10680 10683 10685 10684 10681 10680 10683 10684 10685 10687 10689 10690 10688 10687 10688 10691 10692 10693 10695 10695 10694 10692 10693 10694 10694 10692
10508 10513 10517 10522 10528 10533 10538 10542 10547 10551 10555 10559 10562 10564 10567 10570 10573 10577 10582 10586 10588 10591 10594 10597 10599 10602 10605 10608 10611 10615 10617 10618 10618 10620 10623 10625 10628 10632 10635 10640 10645 10648 10649 10650 10652 10653 10655 10656 10656 10658 10660 10659 10659 10660 10662 10665 10669 10671 10671 10674 10678 10679 10675 10673 10675 10676 10677 10679 10682 10683 10684 10683 10682 10682 10685 10686 10687 10689 10690 10687 10686 10687 10687 10686 10686
10500 10504 10508 10513 10518 10523 10529 10534 10538 10542 10546 10550 10554 10556 10559 10561 10565 10569 10573 10577 10580 10583 10586 10589 10592 10594 10597 10601 10604 10607 10609 10610 10610 10611 10614 10616 10619 10623 10627 10632 10637 10639 10640 10643 10645 10646 10647 10649 10649 10650 10651 10651 10651 10652 10654 10657 10661 10663 10664 10668 10672 10671 10666 10667 10669 10669 10670 10674 10676 10677 10678 10677 10676 10677 10679 10680 10681 10683 10683 10681 10680 10680 10680 10679 10679
10493 10496 10500 10504 10508 10513 10519 10524 10529 10533 10537 10541 10544 10547 10550 10554 10557 10560 10564 10568 10571 10574 10576 10580 10584 10586 10589 10592 10596 10597 10600 10602 10602 10602 10604 10607 10610 10613 10619 10624 10627 10629 10631 10635 10638 10639 10640 10640 10641 10641 10642 10643 10644 10644 10646 10649 10652 10655 10658 10662 10664 10661 10659 10662 10663 10662 10665 10668 10669 10670 10671 10670 10670 10671 10671 10672 10673 10674 10674 10674 10674 10673 10673 10673 10674
10487 10489 10492 10495 10499 10504 10509 10514 10519 10524 10528 10532 10535 10538 10542 10545 10548 10551 10555 10559 10562 10565 10568 10571 10576 10579 10581 10583 10586 10588 10590 10592 10594 10594 10595 10597 10600 10604 10609 10614 10616 10619 10624 10628 10630 10631 10631 10631 10632 10633 10633 10635 10637 10637 10638 10640 10643 10647 10651 10653 10654 10653 10652 10655 10657 10656 10659 10661 10662 10664 10665 10664 10664 10664 10664 10664 10664 10664 10665 10666 10666 10666 10666 10667 10669
10481 10483 10486 10489 10492 10496 10500 10505 10509 10514 10518 10522 10525 10529 10533 10536 10539 10542 10546 10549 10553 10556 10559 10563 10567 10571 10573 10574 10576 10579 10581 10583 10585 10586 10587 10589 10592 10595 10599 10603 10605 10608 10615 10620 10622 10622 10622 10622 10623 10624 10625 10627 10629 10629 10630 10631 10634 10639 10642 10643 10644 10644 10644 10647 10650 10650 10651 10652 10655 10657 10658 10657 10658 10657 10656 10656 10655 10655 10656 10658 10659 10661 10661 10661 10662
10476 10478 10480 10482 10485 10488 10492 10496 10500 10504 10508 10512 10515 10519 10523 10526 10529 10533 10536 10540 10543 10546 10550 10554 10558 10561 10563 10565 10566 10568 10571 10573 10575 10577 10579 10580 10582 10585 10589 10592 10594 10597 10603 10609 10612 10612 10613 10614 10614 10615 10616 10618 10619 10620 10622 10624 10626 10630 10632 10633 10634 10633 10634 10638 10641 10641 10643 10645 10647 10649 10650 10649 10649 10650 10649 10648 10647 10647 10648 10651 10654 10656 10655 10654 10654
10470 10472 10474 10476 10478 10481 10484 10487 10491 10495 10498 10502 10506 10509 10513 10516 10520 10523 10526 10530 10533 10536 10539 10543 10547 10550 10552 10555 10556 10558 10561 10564 10566 10567 10568 10570 10571 10573 10576 10580 10583 10586 10592 10597 10600 10602 10604 10605 10605 10606 10608 10609 10609 10610 10613 10616 10617 10619 10621 10622 10623 10624 10626 10630 10632 10633 10636 10638 10638 10638 10640 10640 10640 10641 10641 10640 10640 10641 10642 10644 10647 10648 10648 10647 10646
10465 10466 10468 10470 10471 10474 10476 10479 10483 10486 10489 10492 10495 10499 10502 10506 10509 10513 10516 10519 10522 10526 10529 10532 10535 10539 10542 10544 10546 10548 10550 10553 10555 10556 10558 10560 10561 10562 10564 10568 10572 10575 10580 10585 10588 10591 10594 10595 10596 10597 10597 10598 10598 10600 10603 10606 10606 10607 10610 10612 10613 10614 10616 10619 10621 10623 10626 10628 10628 10629 10629 10629 10630 10633 10633 10633 10634 10634 10635 10636 10638 10639 10639 10639 10638
10461 10462 10463 10464 10466 10467 10469 10472 10474 10477 10480 10482 10485 10488 10492 10495 10499 10502 10505 10508 10511 10514 10518 10521 10524 10528 10531 10533 10535 10538 10540 10541 10542 10544 10547 10550 10552 10553 10554 10556 10559 10562 10567 10571 10573 10577 10582 10585 10586 10587 10587 10587 10587 10589 10592 10595 10595 10595 10598 10600 10600 10602 10604 10606 10608 10612 10615 10618 10619 10619 10619 10618 10620 10623 10625 10625 10626 10626 10626 10627 10629 10631 10631 10630 10630
10456 10457 10458 10459 10460 10461 10463 10464 10466 10469 10471 10473 10475 10478 10481 10484 10488 10491 10495 10498 10500 10503 10506 10508 10512 10516 10519 10521 10525 10528 10529 10528 10529 10531 10535 10539 10543 10544 10544 10545 10546 10547 10551 10555 10559 10563 10569 10573 10575 10576 10577 10577 10577 10578 10580 10582 10583 10584 10585 10586 10588 10590 10591 10593 10596 10601 10605 10606 10607 10608 10608 10608 10610 10613 10615 10617 10618 10618 10618 10619 10621 10621 10621 10620 10623
10451 10451 10452 10453 10454 10455 10456 10458 10459 10461 10462 10464 10465 10467 10470 10473 10476 10480 10483 10486 10489 10492 10494 10496 10500 10504 10507 10509 10513 10517 10517 10515 10515 10518 10522 10526 10530 10533 10534 10534 10534 10536 10538 10540 10544 10550 10555 10559 10561 10563 10564 10565 10566 10567 10567 10569 10570 10572 10573 10574 10575 10576 10578 10580 10584 10590 10593 10593 10594 10597 10597 10597 10599 10602 10604 10607 10610 10608 10607 10609 10611 10611 10610 10612 10615
10444 10445 10446 10446 10447 10449 10450 10451 10452 10453 10455 10456 10457 10458 10460 10462 10465 10468 10471 10474 10477 10480 10482 10484 10487 10491 10494 10497 10501 10504 10504 10502 10501 10505 10510 10514 10516 10520 10522 10523 10524 10525 10527 10528 10532 10536 10540 10542 10545 10548 10549 10551 10553 10554 10555 10555 10556 10559 10560 10560 10561 10563 10565 10568 10572 10577 10578 10578 10581 10584 10585 10586 10590 10591 10592 10596 10599 10598 10597 10599 10601 10600 10601 10603 10606
10438 10438 10439 10439 10440 10441 10442 10443 10444 10445 10447 10448 10449 10450 10451 10452 10454 10457 10459 10462 10465 10468 10470 10472 10474 10478 10482 10485 10487 10490 10490 10490 10490 10493 10497 10502 10505 10507 10510 10512 10512 10513 10515 10517 10521 10524 10524 10525 10527 10529 10531 10533 10536 10538 10539 10540 10541 10545 10547 10546 10547 10550 10553 10555 10559 10562 10563 10564 10567 10570 10573 10576 10579 10581 10581 10584 10588 10588 10588 10589 10590 10590 10591 10593 10595
10432 10432 10432 10432 10432 10433 10434 10435 10435 10437 10438 10439 10440 10442 10442 10443 10445 10447 10448 10450 10453 10455 10458 10460 10462 10464 10468 10472 10475 10475 10476 10478 10480 10482 10483 10488 10492 10495 10497 10498 10499 10500 10501 10505 10508 10508 10507 10507 10510 10512 10512 10514 10517 10519 10521 10523 10526 10529 10531 10533 10536 10538 10540 10543 10544 10544 10546 10550 10554 10558 10562 10565 10567 10569 10571 10572 10575 10578 10579 10580 10580 10579 10580 10582 10585
10427 10426 10426 10425 10425 10425 10426 10426 10427 10427 10428 10429 10431 10432 10433 10433 10434 10436 10438 10440 10442 10444 10446 10448 10450 10452 10454 10459 10463 10463 10462 10464 10469 10471 10471 10473 10477 10480 10483 10484 10484 10485 10486 10489 10491 10491 10489 10491 10495 10498 10498 10499 10501 10502 10503 10505 10508 10510 10512 10515 10520 10523 10526 10529 10528 10528 10531 10537 10542 10547 10551 10553 10555 10558 10558 10559 10562 10566 10569 10571 10569 10567 10568 10572 10575
10423 10422 10421 10420 10420 10419 10419 10419 10419 10419 10419 10419 10420 10422 10423 10424 10424 10425 10427 10429 10431 10433 10435 10436 10438 10441 10443 10446 10450 10451 10450 10451 10454 10458 10460 10462 10463 10466 10468 10470 10469 10469 10471 10473 10475 10476 10476 10476 10479 10482 10483 10485 10486 10488 10488 10489 10491 10492 10494 10496 10500 10504 10508 10510 10511 10513 10518 10524 10529 10534 10539 10542 10545 10546 10545 10545 10548 10553 10557 10558 10556 10554 10556 10560 10562
10419 10418 10417 10416 10415 10414 10413 10413 10412 10412 10411 10411 10412 10412 10413 10414 10414 10414 10415 10416 10419 10421 10424 10426 10428 10429 10431 10433 10437 10439 10439 10440 10442 10444 10446 10448 10451 10452 10453 10454 10453 10454 10456 10458 10459 10460 10461 10462 10464 10465 10467 10469 10471 10472 10473 10474 10476 10477 10479 10481 10483 10485 10488 10490 10492 10496 10501 10506 10511 10518 10526 10531 10532 10529 10528 10531 10536 10540 10543 10544 10543 10541 10543 10545 10547
10415 10414 10413 10412 10411 10409 10408 10407 10406 10405 10404 10404 10404 10404 10403 10404 10404 10404 10405 10405 10406 10408 10411 10414 10417 10419 10420 10421 10423 10426 10428 10429 10431 10432 10433 10434 10437 10438 10439 10440 10440 10440 10442 10444 10445 10446 10447 10447 10448 10449 10450 10452 10454 10455 10456 10458 10460 10462 10464 10466 10468 10469 10471 10474 10477 10479 10481 10485 10490 10498 10509 10515 10513 10509 10512 10519 10524 10524 10526 10528 10529 10529 10529 10530 10533
10411 10409 10408 10408 10407 10405 10404 10403 10402 10400 10399 10398 10397 10396 10396 10395 10395 10394 10395 10395 10395 10396 10398 10400 10403 10407 10410 10411 10411 10413 10415 10417 10419 10420 10421 10422 10424 10425 10426 10427 10428 10429 10429 10430 10431 10431 10432 10431 10432 10433 10433 10435 10436 10438 10438 10441 10443 10446 10448 10451 10452 10453 10455 10458 10461 10462 10464 10467 10471 10476 10484 10492 10495 10496 10499 10502 10505 10507 10510 10514 10516 10517 10516 10517 10522
10406 10405 10403 10402 10402 10400 10399 10398 10397 10396 10394 10392 10391 10390 10389 10388 10387 10386 10385 10385 10385 10386 10387 10388 10390 10393 10397 10400 10402 10402 10403 10405 10406 10407 10408 10410 10412 10413 10414 10415 10416 10416 10417 10416 10416 10416 10416 10417 10417 10418 10418 10419 10420 10421 10422 10424 10426 10428 10430 10432 10434 10436 10439 10441 10442 10444 10447 10449 10452 10456 10461 10467 10476 10483 10483 10482 10485 10491 10497 10500 10501 10503 10503 10506 10510
10402 10400 10398 10397 10396 10395 10394 10393 10392 10390 10389 10388 10386 10384 10383 10381 10380 10379 10378 10377 10376 10376 10376 10377 10378 10379 10382 10387 10390 10392 10393 10395 10396 10396 10396 10398 10399 10400 10401 10402 10403 10404 10404 10402 10401 10401 10403 10404 10404 10404 10405 10405 10405 10405 10406 10408 10410 10410 10411 10412 10414 10417 10421 10423 10423 10423 10426 10429 10433 10438 10441 10446 10456 10464 10466 10465 10469 10475 10480 10483 10486 10489 10491 10494 10498
10398 10396 10394 10392 10391 10389 10388 10387 10385 10384 10383 10382 10381 10379 10378 10376 10374 10373 10371 10370 10369 10368 10368 10368 10368 10369 10370 10373 10376 10379 10382 10385 10386 10386 10387 10387 10389 10389 10390 10391 10392 10392 10391 10389 10388 10388 10390 10391 10390 10391 10392 10391 10390 10389 10389 10391 10392 10392 10392 10393 10395 10399 10402 10403 10401 10401 10404 10408 10414 10420 10424 10429 10437 10445 10449 10450 10453 10458 10463 10468 10473 10476 10478 10481 10486
10396 10393 10391 10389 10386 10384 10382 10381 10379 10378 10377 10376 10375 10373 10372 10370 10369 10368 10366 10365 10363 10362 10361 10360 10360 10360 10361 10362 10363 10366 10369 10373 10375 10376 10377 10378 10379 10379 10380 10381 10382 10381 10379 10377 10377 10377 10377 10377 10378 10379 10378 10377 10375 10374 10373 10373 10374 10375 10375 10376 10378 10381 10383 10384 10383 10385 10389 10394 10400 10406 10411 10415 10421 10426 10430 10433 10436 10441 10448 10454 10459 10464 10467 10470 10474
10393 10390 10388 10385 10383 10380 10378 10376 10374 10372 10371 10370 10368 10367 10365 10364 10363 10362 10361 10359 10358 10356 10355 10354 10354 10353 10353 10353 10354 10356 10358 10360 10363 10364 10366 10368 10368 10369 10370 10370 10371 10370 10369 10368 10367 10367 10367 10366 10367 10367 10365 10364 10363 10362 10360 10359 10359 10359 10359 10360 10362 10364 10366 10369 10370 10371 10374 10380 10386 10391 10396 10399 10401 10404 10409 10414 10420 10426 10433 10439 10445 10451 10454 10455 10457
10389 10386 10384 10381 10379 10377 10374 10372 10369 10367 10365 10364 10362 10361 10359 10358 10357 10355 10354 10353 10352 10351 10350 10349 10348 10347 10347 10346 10347 10348 10349 10351 10352 10354 10355 10357 10358 10359 10359 10360 10360 10360 10360 10359 10358 10358 10357 10357 10357 10356 10354 10352 10352 10351 10349 10348 10347 10345 10346 10347 10348 10350 10353 10355 10355 10355 10357 10362 10368 10373 10377 10379 10381 10384 10390 10398 10405 10412 10418 10424 10430 10436 10439 10438 10438
10384 10382 10380 10377 10375 10372 10370 10367 10365 10363 10361 10358 10356 10355 10353 10352 10350 10349 10348 10347 10346 10345 10344 10343 10342 10341 10341 10340 10340 10341 10342 10343 10344 10345 10346 10347 10348 10349 10349 10349 10349 10350 10351 10350 10349 10349 10348 10348 10347 10346 10344 10342 10341 10339 10338 10336 10335 10334 10334 10335 10336 10338 10340 10341 10342 10343 10346 10351 10355 10358 10361 10364 10368 10372 10379 10386 10393 10399 10406 10410 10414 10418 10421 10421 10421
10380 10378 10375 10373 10370 10368 10365 10362 10360 10357 10355 10354 10351 10349 10347 10346 10344 10342 10341 10340 10339 10338 10337 10336 10336 10335 10335 10334 10334 10334 10334 10335 10335 10336 10337 10338 10338 10339 10339 10339 10339 10339 10340 10340 10340 10339 10338 10338 10337 10335 10333 10331 10330 10329 10327 10326 10325 10325 10324 10325 10326 10328 10330 10331 10332 10335 10338 10341 10344 10347 10350 10354 10358 10364 10371 10378 10381 10384 10389 10393 10395 10397 10401 10404 10406
10376 10374 10371 10369 10367 10364 10361 10358 10355 10352 10350 10348 10346 10344 10342 10340 10338 10337 10335 10333 10332 10331 10329 10329 10328 10328 10327 10327 10327 10326 10326 10326 10327 10327 10328 10328 10329 10329 10330 10330 10330 10329 10329 10329 10329 10328 10328 10327 10327 10326 10324 10322 10321 10319 10318 10318 10318 10318 10317 10318 10318 10319 10320 10322 10324 10327 10330 10334 10336 10338 10341 10344 10348 10354 10361 10366 10367 10369 10372 10376 10380 10382 10385 10389 10392
10371 10369 10366 10364 10362 10360 10357 10354 10351 10348 10345 10342 10340 10338 10337 10335 10333 10331 10329 10327 10325 10323 10322 10321 10320 10319 10319 10319 10319 10318 10318 10318 10318 10318 10318 10319 10319 10320 10320 10320 10320 10320 10320 10320 10320 10319 10318 10317 10317 10316 10315 10315 10314 10312 10310 10309 10311 10312 10312 10312 10312 10311 10311 10312 10315 10318 10321 10324 10327 10329 10331 10334 10338 10343 10348 10351 10354 10356 10360 10363 10366 10368 10370 10373 10375
10366 10363 10361 10358 10355 10353 10351 10349 10346 10343 10340 10337 10334 10332 10330 10328 10326 10324 10323 10321 10319 10317 10315 10314 10312 10311 10310 10310 10309 10309 10309 10309 10309 10308 10308 10308 10309 10309 10310 10310 10310 10310 10310 10310 10311 10310 10310 10309 10308 10307 10306 10305 10305 10304 10302 10301 10302 10304 10305 10306 10306 10306 10305 10306 10307 10308 10310 10313 10316 10319 10321 10324 10327 10331 10335 10338 10341 10344 10347 10350 10353 10355 10358 10360 10362
10360 10357 10354 10351 10349 10346 10344 10342 10340 10337 10335 10332 10329 10326 10323 10321 10319 10317 10315 10313 10312 10310 10309 10307 10305 10303 10302 10301 10300 10299 10299 10299 10299 10299 10299 10299 10298 10298 10299 10299 10300 10300 10300 10300 10301 10301 10301 10301 10300 10299 10298 10297 10296 10295 10295 10293 10293 10295 10297 10298 10299 10299 10299 10300 10300 10301 10302 10303 10306 10308 10311 10314 10317 10320 10323 10325 10329 10332 10335 10339 10342 10345 10347 10349 10351
10354 10351 10347 10345 10342 10339 10336 10334 10332 10330 10327 10325 10322 10319 10316 10314 10311 10309 10307 10305 10303 10302 10301 10299 10298 10296 10294 10293 10291 10290 10289 10289 10288 10288 10288 10288 10288 10288 10288 10288 10288 10289 10289 10290 10290 10291 10291 10291 10291 10290 10290 10289 10289 10288 10288 10287 10285 10285 10287 10289 10291 10292 10292 10292 10293 10294 10295 10296 10298 10299 10301 10304 10307 10310 10312 10315 10318 10321 10325 10329 10333 10334 10336 10338 10339
10348 10345 10342 10338 10335 10332 10329 10326 10323 10321 10319 10317 10314 10312 10309 10306 10303 10301 10299 10297 10295 10293 10291 10290 10289 10288 10286 10285 10283 10281 10280 10279 10278 10278 10278 10277 10278 10278 10278 10278 10278 10278 10278 10279 10280 10280 10281 10281 10281 10281 10281 10281 10281 10281 10281 10281 10280 10279 10279 10279 10281 10283 10285 10286 10286 10287 10289 10290 10291 10293 10294 10296 10298 10301 10303 10306 10309 10311 10315 10318 10321 10323 10325 10326 10327